Regional Weather Roundup
Issued by NWS Goodland, KS

Home | Current Version | Previous Version | Text Only | Print | Product List | Glossary Off
Versions: 1 2 3 4 5 6 7 8 9 10 11 12 13 14 15 16 17 18 19 20 21 22 23 24 25 26 27 28 29 30 31 32 33 34 35 36 37 38 39 40 41 42 43 44 45 46 47 48 49 50

000
ASUS43 KGLD 201359
RWRGLD

GOODLAND FORECAST AREA HOURLY WEATHER ROUNDUP
NATIONAL WEATHER SERVICE GOODLAND KS
800 AM MDT SUN APR 20 2014

...OFFICIAL OBSERVATIONS...

CITY           SKY/WX    TMP DP  RH WIND       PRES   REMARKS
GOODLAND KS    PTSUNNY   49  48  97 N8        30.01R FOG
HILL CITY KS   PTSUNNY   58  50  75 CALM      30.00S
IMPERIAL NEB   PTSUNNY   48  41  76 VRB3      30.02R
MCCOOK NEB     CLOUDY    51  46  83 CALM      30.01R
AKRON CO       PTSUNNY   51  43  74 NE5       30.05R
BURLINGTON CO  PTSUNNY   49  45  86 N9        30.01S
LIMON CO       CLOUDY    48  42  80 N12       30.06R
$$

...UNOFFICIAL OBSERVATIONS...

CITY           SKY/WX    TMP DP  RH WIND       PRES   REMARKS
COLBY KS       SUNNY     59  54  82 S6        30.00S
LENORA KS        N/A     59  32  36 S10         N/A
LEOTI KS         N/A     56  32  40 SE10        N/A
NORTON KS      SUNNY     57  48  72 S8        29.98S
SHARON SPRINGS   N/A     48  46  94 CALM        N/A
WAKEENEY KS      N/A     58  49  69 MISG        N/A
KIT CARSON CO    N/A     50  45  84 MISG        N/A
$$



USA.gov is the U.S. government's official web portal to all federal, state and local government web resources and services.